Theta_e
314 315 317 322 324 324 324 324 328 333 335 336 336 335 334 334 334 334 334 334 337 335 333 332 328 323 317 316 313 311 310 309 308 309 313 313 312 311 310 308 307 306 305
313 313 312 312 312 313 314 319 323 326 327 331 334 335 335 336 335 334 334 335 336 335 334 333 330 326 319 318 317 313 311 310 308 310 311 309 308 309 307 306 305 304 303
312 308 308 308 308 308 308 310 312 314 318 327 333 334 333 332 335 334 334 334 335 335 334 333 332 328 324 318 318 316 312 310 309 311 311 309 310 306 306 305 304 304 303
309 307 306 306 305 306 306 307 307 309 311 316 328 330 330 330 331 331 331 332 332 333 334 333 332 330 327 321 318 317 314 311 309 311 312 310 310 307 304 305 304 304 303
308 307 307 306 305 305 305 305 306 307 308 308 316 325 324 328 330 330 331 331 330 330 331 334 331 329 328 321 317 317 314 311 310 310 311 311 309 308 307 304 304 304 303
306 305 304 304 303 304 304 305 305 305 305 306 307 313 324 324 325 326 328 330 331 330 330 330 330 329 327 321 317 317 315 312 311 310 310 311 310 308 308 305 303 303 303
302 300 300 301 301 301 302 303 304 305 305 305 305 306 308 315 322 324 325 326 327 328 328 328 328 328 324 320 319 318 316 312 310 310 310 310 311 310 309 308 304 301 302
300 299 299 299 300 301 302 302 303 305 305 305 305 305 307 308 312 321 324 325 324 324 325 326 326 326 322 320 319 318 316 312 310 309 310 311 311 311 310 310 309 301 301
301 300 300 300 299 299 299 300 300 301 303 305 305 307 307 306 310 313 319 321 321 322 323 323 323 323 321 319 319 317 313 310 309 308 309 308 309 311 309 309 310 309 301
300 300 300 300 299 299 299 300 300 300 301 301 305 307 307 306 306 307 313 317 318 319 319 320 319 319 318 317 317 315 313 312 311 310 307 308 310 310 308 308 308 308 309
299 300 300 300 299 299 300 301 301 302 302 302 303 306 308 308 306 306 306 311 316 316 317 317 316 317 316 315 314 313 312 311 308 307 306 307 307 308 308 306 305 305 306
299 300 300 300 300 300 301 302 302 303 304 304 303 306 307 308 307 307 308 308 312 313 313 313 314 315 316 314 315 314 311 309 308 308 307 307 306 305 304 305 304 302 302
300 301 301 302 302 302 302 303 303 305 305 303 303 306 307 307 307 307 309 309 310 310 310 310 310 313 313 312 312 310 309 308 306 306 305 304 303 302 302 301 300 300 299
301 302 302 302 301 302 303 304 305 307 306 304 304 307 307 307 306 306 308 308 307 306 306 306 306 304 306 308 308 306 305 305 305 304 303 302 301 300 299 299 299 299 299
301 301 301 302 301 302 304 305 306 306 305 304 305 307 306 305 305 306 306 307 306 304 304 301 300 301 301 302 301 302 301 300 300 299 299 298 298 299 299 299 299 299 299
301 302 302 302 302 303 305 306 306 305 304 305 306 306 305 304 304 304 305 305 303 301 299 298 297 298 299 299 299 300 299 298 298 297 297 297 298 298 298 297 296 294 293
302 301 302 302 302 303 305 306 306 305 305 306 306 305 304 304 304 304 303 302 300 300 298 297 298 299 298 298 298 298 297 297 297 297 296 295 294 293 293 291 290 291 291
301 300 300 300 302 303 305 306 306 305 305 306 305 304 303 302 303 303 302 301 300 299 298 298 298 298 297 296 296 296 295 295 295 294 293 292 292 291 291 291 289 288 287
299 299 299 300 301 304 304 306 305 305 305 304 304 304 304 301 301 301 301 300 299 299 298 298 297 297 296 296 295 294 294 293 291 290 288 288 290 290 289 288 287 287 286
299 299 298 299 300 302 304 305 304 304 304 303 303 304 302 301 301 301 300 300 299 298 298 297 296 295 294 293 293 293 293 291 289 289 289 288 288 287 284 283 283 283 283
299 299 298 298 301 302 303 305 305 305 305 304 303 303 303 302 301 301 300 299 299 298 298 297 296 295 294 293 292 291 290 290 289 289 288 286 283 282 282 282 282 282 283
299 299 299 298 301 302 302 303 305 304 304 304 303 303 302 302 301 300 299 299 298 297 296 294 293 292 291 291 290 290 289 289 289 288 285 283 282 282 282 281 282 282 282
299 299 299 298 301 301 301 299 302 303 303 303 303 302 301 300 300 299 299 298 298 297 295 294 293 291 289 289 289 288 288 287 287 284 283 283 282 282 280 280 280 280 280
299 298 298 299 300 299 299 298 300 300 300 300 300 299 298 298 298 297 297 297 296 295 294 293 292 291 290 289 288 287 286 285 284 283 282 283 282 281 280 280 279 279 279
298 298 298 298 299 300 301 300 297 298 298 297 298 297 296 296 296 295 295 295 294 294 293 292 292 291 290 290 288 288 287 286 285 284 284 283 283 282 281 280 280 280 279
297 297 297 298 298 299 300 301 298 297 296 297 296 296 295 295 295 295 294 292 291 292 291 290 291 291 289 289 288 287 286 285 285 285 284 282 281 281 281 279 279 279 278
Wind_Speed
16 18 20 20 16 10 5 6 11 14 17 24 29 31 34 35 36 36 35 34 36 37 36 36 34 34 34 33 30 29 29 29 29 27 25 23 21 19 18 17 17 16 16
18 21 22 22 22 20 18 14 12 11 13 18 23 27 31 32 34 36 38 38 37 37 37 39 39 39 37 36 34 34 34 33 33 31 24 13 17 20 19 18 18 17 15
18 21 21 22 21 22 22 21 19 18 17 12 16 24 27 30 31 34 34 35 39 40 38 40 42 41 41 40 39 39 41 40 39 38 23 13 12 20 23 22 20 17 16
17 19 21 22 23 23 21 20 21 21 20 18 10 14 21 27 30 31 31 31 32 37 42 41 44 43 43 44 44 43 43 43 42 41 36 22 17 13 14 26 25 22 18
15 18 19 19 20 19 20 19 19 19 18 16 12 14 20 25 29 29 32 30 27 29 34 42 43 44 45 46 44 44 46 47 45 47 44 34 21 19 15 19 32 28 25
14 16 17 17 18 18 18 19 19 18 16 15 15 16 17 22 25 28 33 35 33 32 32 33 42 46 47 46 45 44 45 48 48 46 47 47 40 28 20 12 25 33 29
14 16 18 19 19 20 20 20 20 19 19 18 17 19 21 22 24 26 30 33 35 35 35 33 37 46 47 47 47 47 49 51 49 48 45 46 44 33 29 21 21 24 29
14 15 17 17 18 18 18 20 22 23 24 25 25 25 25 25 26 26 28 32 33 33 35 34 35 41 49 50 49 47 47 49 48 43 37 39 41 37 33 32 25 15 23
14 17 22 25 26 26 24 25 25 25 26 26 27 27 25 27 28 28 26 28 33 33 33 32 34 36 47 50 49 46 44 39 38 39 37 36 38 42 32 27 27 27 18
20 24 28 30 30 27 25 24 26 29 29 27 27 28 25 26 26 28 29 26 27 30 34 35 33 34 40 43 43 41 41 41 43 45 38 38 38 41 37 33 31 30 28
21 24 27 29 28 26 23 24 28 30 31 31 29 29 25 24 24 25 26 28 26 28 33 34 34 32 34 39 38 37 38 39 37 40 42 41 36 36 37 34 30 26 31
21 26 27 26 24 27 27 30 31 30 31 29 27 28 27 24 23 21 20 22 22 27 33 36 36 35 35 41 38 36 38 38 38 39 41 35 31 29 29 26 27 32 32
22 23 24 27 29 32 33 36 33 30 29 25 23 26 24 22 19 17 16 17 18 22 25 30 34 34 36 38 36 37 39 38 32 32 33 35 33 36 36 36 34 33 28
19 22 26 30 33 36 38 38 30 30 23 22 22 22 21 18 17 16 14 15 13 14 17 20 26 30 33 33 34 35 34 32 29 30 28 28 29 27 25 27 28 26 25
20 22 24 26 33 35 36 31 31 28 19 16 18 21 17 13 12 12 10 10 11 11 11 15 18 22 25 26 26 23 19 23 24 23 22 21 21 23 26 25 24 24 24
21 20 22 27 32 34 35 33 30 22 15 15 18 17 12 8 9 8 7 9 8 5 7 9 10 15 17 20 16 13 13 18 17 20 20 21 21 22 23 22 19 17 16
17 22 24 26 31 32 31 31 27 16 13 13 14 13 9 5 7 6 7 6 5 3 2 5 7 11 11 12 7 7 15 16 18 19 20 20 17 17 17 18 16 14 14
18 21 25 30 26 28 30 27 19 11 11 12 8 3 4 3 3 2 2 3 3 3 7 9 4 4 5 6 5 10 15 14 14 14 15 17 17 16 14 14 15 15 15
20 24 28 29 32 26 26 21 16 11 11 8 4 3 8 4 2 2 4 3 2 2 4 5 5 5 6 7 9 10 14 15 16 16 17 15 11 12 13 14 15 15 14
20 25 29 33 34 23 23 19 13 8 7 6 7 11 4 4 4 2 2 1 2 3 3 3 4 5 6 8 9 12 14 15 18 16 15 13 12 12 12 11 11 13 15
23 25 28 32 31 19 20 16 13 9 12 14 12 8 4 3 4 3 3 4 5 7 7 7 6 5 5 6 7 8 10 14 18 17 17 15 13 12 11 11 11 10 12
25 24 26 30 28 21 20 17 17 15 13 12 11 9 6 7 7 5 6 6 7 9 10 11 10 11 11 10 10 10 10 12 13 15 15 14 13 11 11 12 12 12 13
25 24 22 24 26 19 15 18 12 14 12 10 10 11 9 9 11 11 9 9 10 11 12 14 14 14 14 13 11 12 14 14 16 16 13 13 12 12 12 12 12 11 10
18 18 21 22 19 15 14 17 12 8 8 9 12 12 11 11 11 12 12 12 11 11 13 16 16 16 16 16 15 17 17 19 20 17 16 14 12 13 12 11 11 11 11
20 20 21 22 20 20 19 15 14 10 10 11 11 11 11 11 11 10 10 9 7 6 9 16 17 16 16 15 15 17 18 19 22 22 17 14 13 13 13 13 11 10 10
23 23 23 22 20 19 20 18 11 10 10 12 11 11 11 10 10 10 10 9 7 7 10 10 11 11 11 12 13 14 15 17 20 18 14 13 12 11 11 12 14 13 12
Wind_Direction
76 71 68 69 67 64 38 325 295 285 269 261 259 258 256 256 254 254 255 255 252 248 245 244 242 237 232 229 226 220 215 205 205 199 190 192 197 201 202 201 203 207 213
86 75 67 62 59 57 53 44 23 349 303 272 276 272 270 268 267 264 259 256 255 251 246 243 240 239 235 230 227 225 215 213 209 198 184 177 198 201 202 203 205 205 207
83 69 60 56 51 44 41 35 28 23 10 322 263 270 272 271 269 271 274 265 257 256 251 246 242 240 238 235 232 228 226 219 207 208 198 173 198 190 199 203 206 210 210
71 57 55 49 43 37 32 28 23 17 14 11 344 288 284 286 292 288 287 287 279 265 253 248 245 239 238 238 235 233 230 227 221 208 210 212 206 180 184 201 206 206 210
60 50 44 39 36 30 23 19 16 8 360 355 340 303 296 288 286 288 290 282 282 280 270 252 245 241 238 238 237 234 228 228 229 222 215 215 213 204 180 191 200 204 206
48 40 35 29 24 15 7 1 355 349 340 332 322 306 287 288 285 284 281 282 281 278 273 266 253 243 240 238 236 236 234 232 230 231 228 222 215 210 201 180 198 202 203
36 17 4 357 351 347 342 341 338 336 329 321 311 298 290 283 276 280 284 281 278 275 273 270 261 246 238 237 235 234 231 229 229 233 233 231 226 225 224 221 192 195 204
0 356 356 348 340 335 333 327 321 320 319 317 314 310 299 286 276 269 275 277 273 277 274 270 264 253 240 235 234 234 233 230 227 229 237 236 233 235 236 232 221 186 198
353 352 353 349 342 335 326 320 322 323 321 311 309 306 303 298 293 287 278 281 284 280 274 272 267 261 243 235 232 231 227 224 222 220 223 232 236 240 232 230 233 223 195
354 350 347 344 339 334 330 330 316 318 316 312 304 300 297 296 293 294 286 282 284 283 280 274 264 257 247 236 235 231 225 221 224 235 223 228 227 229 230 233 233 228 233
345 339 338 337 335 332 324 318 316 310 313 312 301 294 290 294 294 288 278 273 282 284 279 271 261 251 246 237 226 223 230 226 224 217 219 226 222 231 234 227 222 229 231
335 337 335 329 324 321 319 319 318 312 309 300 289 282 282 291 295 293 291 270 274 280 276 268 255 246 242 233 224 231 224 215 209 217 211 209 205 216 220 224 224 218 218
333 331 330 330 330 331 325 322 320 314 308 294 280 271 274 281 287 290 281 278 272 275 276 268 259 248 242 224 224 219 209 200 207 204 223 232 232 229 234 232 223 209 201
325 327 329 329 329 326 324 321 317 316 302 290 274 266 270 284 294 296 290 296 302 303 289 278 269 246 230 220 217 203 198 196 202 217 215 219 217 222 205 207 206 205 213
324 325 323 323 327 326 323 321 317 318 298 280 267 258 263 281 294 286 295 302 311 314 307 296 267 245 227 209 194 184 201 215 206 208 206 201 201 198 205 214 227 236 235
314 317 319 320 325 325 323 318 312 317 287 258 248 250 265 284 301 293 310 325 318 323 313 293 236 212 191 172 202 222 219 196 190 195 193 197 203 216 221 219 208 206 203
316 319 321 319 323 322 322 318 311 304 263 243 239 250 247 293 310 325 329 359 356 13 291 186 176 175 194 218 197 155 197 186 184 194 202 202 186 190 182 184 178 190 192
325 330 332 333 320 321 324 314 308 280 241 235 229 226 273 263 248 228 14 12 39 114 169 186 205 192 179 204 189 186 197 186 187 190 186 183 174 180 191 189 176 183 190
330 334 338 334 336 324 318 315 299 242 226 216 189 325 307 231 159 104 70 45 63 131 155 167 187 208 199 180 183 185 187 176 167 162 164 175 191 186 181 186 185 189 188
322 329 332 335 334 316 310 311 278 232 260 217 264 273 231 167 126 115 107 162 199 206 220 223 206 190 179 165 167 181 183 167 166 175 181 178 176 182 186 187 178 176 174
320 322 327 335 338 314 303 293 258 244 274 248 256 224 207 202 214 221 228 238 241 237 234 227 220 212 202 207 190 182 180 185 183 180 178 177 178 178 176 175 173 179 170
310 317 321 328 334 316 301 284 270 274 266 250 226 213 217 234 251 257 249 249 248 244 231 218 202 190 192 200 193 195 196 189 190 174 164 166 164 169 174 175 171 168 169
301 303 310 320 329 315 308 303 273 270 261 235 222 228 229 236 240 240 240 246 251 250 231 219 208 197 189 194 197 190 180 171 163 159 162 164 163 164 170 173 173 174 177
310 304 305 308 311 321 339 326 298 255 232 230 215 209 213 226 232 235 241 240 237 230 228 224 216 208 200 197 192 189 187 173 162 165 170 172 170 174 179 177 180 185 192
302 303 307 302 306 298 298 317 318 270 224 224 223 220 217 215 222 232 233 229 231 248 246 232 220 213 208 206 204 202 197 187 181 177 180 184 187 194 190 191 196 197 197
300 301 298 300 305 302 282 285 285 280 247 226 225 221 222 223 223 224 225 204 201 207 214 220 223 212 211 212 207 201 199 196 192 181 184 200 202 198 194 195 194 190 192